Content
SEND FEEDBACK

Daily
Averages
Monthly
Summary
United States of America

MORGAN, UTAH


Home > North America > United States > Utah
Elevation: 5298 feet     Latitude: 41 03N     Longitude: 111 41W

WEATHER
 
SELECT A DAY
Number of Records: 216,389;   Date Range: 1/1/95 - 10/21/14
 
SHARE

PRINT THIS DATA

[ ← Previous Day ]
WEATHER ALMANAC - FEBRUARY 13, 2013
[ Next Day → ]
[ °C ]   °F
Weather ElementAverageHighLow
Temperature27.8 °F32.4 °F (3:58 pm)22.3 °F (3:58 am)
Dewpoint16.5 °F20.3 °F (11:58 pm)12.2 °F (3:53 am)
Humidity63 %69 % (6:48 am)54 % (1:55 pm)
Barometer30.33 in30.42 in (10:54 am)30.24 in (5:56 pm)
Wind Speed4.3 mph10.4 mph (9:07 am)
Weather ElementAverage
Visibility9.5 mi
Wind DirectionSSE (144.7 °)

Weather ElementTotal
Precipitation---
Heating Degree Days37.7 (Base 65)
Averaged from 32 records on February 13, 2013
WEATHER CONDITIONS BREAKOUT
WIND DIRECTION BREAKOUT
WEATHER BY HOUR - FEBRUARY 13, 2013
[ °C ]   °F
Local TimeTemperatureDewpointHumidityBarometerVisibilityWind DirectionWind SpeedGust SpeedPrecipitationEventsConditions
1:58 AM25.0 °F15.3 °F67 %30.41 in10.0 miSSE (160°)4.6 mphOvercast
2:58 AM24.8 °F14.9 °F66 %30.41 in10.0 miSSE (160°)4.6 mphOvercast
3:53 AM23.0 °F12.2 °F63 %30.29 in10.0 miSouth (170°)6.9 mphScattered Clouds
3:58 AM22.3 °F12.6 °F66 %30.38 in10.0 miSouth (180°)6.9 mphScattered Clouds
4:38 AM23.0 °F14.0 °F68 %30.29 in10.0 miESE (120°)3.5 mphMostly Cloudy
4:58 AM24.1 °F14.2 °F66 %30.38 in10.0 miSouth (170°)2.3 mphOvercast
5:58 AM24.8 °F15.1 °F67 %30.40 in10.0 miNNW (330°)4.6 mphOvercast
6:48 AM24.8 °F15.8 °F69 %30.32 in10.0 miENE (70°)3.5 mphOvercast
6:58 AM24.8 °F15.8 °F69 %30.40 in10.0 miEast (100°)3.5 mphOvercast
7:38 AM23.0 °F14.0 °F68 %30.31 in10.0 miSSE (160°)6.9 mphOvercast
7:58 AM23.4 °F14.5 °F69 %30.40 in10.0 miSSE (150°)6.9 mphMostly Cloudy
8:31 AM26.6 °F15.8 °F64 %30.33 in10.0 miSouth (170°)6.9 mphOvercast
8:56 AM26.6 °F15.8 °F64 %30.32 in10.0 miSouth (180°)8.1 mphOvercast
9:07 AM26.6 °F15.8 °F64 %30.31 in10.0 miSouth (180°)10.4 mphOvercast
9:47 AM26.6 °F17.6 °F69 %30.32 in2.5 miSouth (190°)6.9 mphHaze
9:48 AM26.6 °F17.6 °F69 %30.32 in2.0 miSouth (190°)6.9 mphHaze
9:55 AM27.1 °F17.4 °F67 %30.40 in10.0 miSouth (190°)8.1 mphOvercast
10:54 AM28.8 °F17.2 °F62 %30.42 in10.0 miSSW (200°)4.6 mphOvercast
11:55 AM29.5 °F16.7 °F59 %30.41 in10.0 miSouth (170°)4.6 mphOvercast
12:55 PM30.2 °F16.9 °F58 %30.36 in10.0 miCalmOvercast
1:55 PM31.8 °F16.7 °F54 %30.35 in10.0 miSW (220°)3.5 mphOvercast
1:58 PM31.8 °F16.7 °F54 %30.35 in10.0 miSW (220°)4.6 mphOvercast
2:56 PM32.0 °F17.6 °F55 %30.27 in10.0 miCalmOvercast
3:58 PM32.4 °F17.6 °F55 %30.34 in10.0 miCalmOvercast
4:58 PM32.2 °F17.6 °F55 %30.32 in10.0 miCalmOvercast
5:56 PM32.0 °F17.6 °F55 %30.24 in10.0 miCalmOvercast
6:58 PM31.5 °F19.2 °F61 %30.30 in10.0 miNorth (10°)3.5 mphOvercast
7:58 PM31.3 °F19.6 °F62 %30.30 in10.0 miNNW (330°)4.6 mphOvercast
8:58 PM31.1 °F18.9 °F61 %30.24 in10.0 miENE (60°)3.5 mphOvercast
9:58 PM31.3 °F18.5 °F59 %30.24 in10.0 miESE (120°)3.5 mphOvercast
10:58 PM30.7 °F19.4 °F63 %30.24 in10.0 miSSW (200°)3.5 mphOvercast
11:58 PM29.5 °F20.3 °F69 %30.28 in10.0 miSW (230°)1.2 mphOvercast
Hourly data recorded from KHIF, located miles away from Morgan, Utah







STORIES FROM OUR PARTNERS